CW2125 Weather Reports


time (UTC)temp
C
wind
direction
speed
KPH
gust
KPH
rain 1hr
cm
rain 24hr
cm
rain mn
cm
humidity
%
barometer
mb
20260510224503 13 279 12.9 22.5 0.00 0.00 0.00 34 1018.1
20260510223059 13 286 9.7 22.5 0.00 0.00 0.00 34 1018.1
20260510221554 14 313 16.1 24.1 0.00 0.00 0.00 33 1017.9
20260510220052 15 299 16.1 25.7 0.00 0.00 0.00 33 1017.9
20260510214545 13 308 16.1 25.7 0.00 0.00 0.00 35 1017.8
20260510213046 13 301 19.3 27.4 0.00 0.00 0.00 34 1017.7
20260510211537 14 295 19.3 29.0 0.00 0.00 0.00 34 1017.5
20260510210037 14 274 20.9 30.6 0.00 0.00 0.00 33 1017.3
20260510204528 15 290 14.5 29.0 0.00 0.00 0.00 33 1017.2
20260510203025 14 306 19.3 27.4 0.00 0.00 0.00 35 1017.2
20260510201518 14 288 14.5 29.0 0.00 0.00 0.00 33 1017.4
20260510200015 14 254 11.3 30.6 0.00 0.00 0.00 32 1017.5
20260510194509 14 290 19.3 29.0 0.00 0.00 0.00 33 1017.5
20260510193006 13 302 17.7 29.0 0.00 0.00 0.00 32 1017.6
20260510191501 14 260 14.5 24.1 0.00 0.00 0.00 31 1017.6
20260510190108 14 267 12.9 22.5 0.00 0.00 0.00 31 1017.5
20260510184615 14 279 11.3 29.0 0.00 0.00 0.00 31 1017.5
20260510183048 14 299 9.7 25.7 0.00 0.00 0.00 32 1017.4
20260510181556 14 275 11.3 33.8 0.00 0.00 0.00 31 1017.3
20260510180054 13 269 14.5 33.8 0.00 0.00 0.00 31 1017.2
20260510174534 15 255 20.9 33.8 0.00 0.00 0.00 31 1017.3
20260510173029 13 254 14.5 32.2 0.00 0.00 0.00 30 1017.3
20260510171527 13 269 14.5 24.1 0.00 0.00 0.00 33 1017.4
20260510170021 13 223 9.7 22.5 0.00 0.00 0.00 35 1017.4
20260510164515 13 279 17.7 25.7 0.00 0.00 0.00 36 1017.5
20260510163011 12 298 16.1 32.2 0.00 0.00 0.00 35 1017.5
20260510161511 12 279 12.9 19.3 0.00 0.00 0.00 39 1017.6
20260510160003 12 286 9.7 27.4 0.00 0.00 0.00 38 1017.6
20260510154622 11 261 14.5 24.1 0.00 0.00 0.00 40 1017.5
20260510153102 12 337 11.3 20.9 0.00 0.00 0.00 40 1017.3
20260510151549 11 298 17.7 27.4 0.00 0.00 0.00 40 1017.1
20260510144559 10 318 9.7 24.1 0.00 0.00 0.00 44 1017.0
20260510143036 10 270 8.0 20.9 0.00 0.00 0.00 44 1016.9
20260510141532 10 278 8.0 17.7 0.00 0.00 0.00 46 1016.9
20260510140027 10 286 9.7 19.3 0.00 0.00 0.00 47 1016.8
20260510134523 9 298 4.8 14.5 0.00 0.00 0.00 50 1016.7
20260510133020 8 267 8.0 12.9 0.00 0.00 0.00 52 1016.7
20260510131514 8 217 8.0 12.9 0.00 0.00 0.00 57 1016.6
20260510130010 8 232 6.4 11.3 0.00 0.00 0.00 59 1016.4
20260510124505 7 230 3.2 8.0 0.00 0.00 0.00 65 1016.3
20260510123002 7 242 4.8 9.7 0.00 0.00 0.00 68 1016.2
20260510121559 6 265 3.2 8.0 0.00 0.00 0.00 68 1016.0
20260510120052 5 252 3.2 8.0 0.00 0.00 0.00 66 1015.7
20260510114548 5 209 3.2 6.4 0.00 0.00 0.00 57 1015.5
20260510113043 3 209 1.6 8.0 0.00 0.00 0.00 39 1015.4
20260510111545 2 153 0.0 0.0 0.00 0.00 0.00 100 1015.3
20260510110035 1 153 1.6 3.2 0.00 0.00 0.00 10 1015.1
20260510104539 1 153 3.2 4.8 0.00 0.00 0.00 18 1014.8
20260510103026 0 153 3.2 4.8 0.00 0.00 0.00 26 1014.6
20260510101523 1 153 0.0 3.2 0.00 0.00 0.00 34 1014.2
20260510100022 1 153 3.2 4.8 0.00 0.00 0.00 30 1014.0
20260510094519 1 153 3.2 4.8 0.00 0.00 0.00 33 1013.8
20260510093017 1 153 1.6 4.8 0.00 0.00 0.00 36 1013.7
20260510091524 1 153 1.6 4.8 0.00 0.00 0.00 41 1013.6
20260510090011 1 153 3.2 4.8 0.00 0.00 0.00 48 1013.4
20260510084520 1 153 1.6 3.2 0.00 0.00 0.00 54 1013.1
20260510083005 1 153 3.2 4.8 0.00 0.00 0.00 57 1012.9
20260510081501 2 153 0.0 3.2 0.00 0.00 0.00 62 1012.7
20260510080105 2 153 1.6 3.2 0.00 0.00 0.00 65 1012.5
20260510074554 2 153 3.2 4.8 0.00 0.00 0.00 69 1012.3
20260510073052 3 153 0.0 6.4 0.00 0.00 0.00 69 1012.1
20260510071547 4 355 0.0 3.2 0.00 0.00 0.00 66 1012.0
20260510070043 5 355 3.2 11.3 0.00 0.00 0.00 63 1012.0
20260510064539 6 351 9.7 16.1 0.00 0.00 0.00 61 1011.7
20260510063037 5 355 8.0 12.9 0.00 0.00 0.00 62 1011.7
20260510061535 6 355 8.0 12.9 0.00 0.00 0.00 58 1011.5
20260510060038 7 10 9.7 19.3 0.00 0.00 0.00 55 1011.2
20260510054528 7 11 9.7 17.7 0.00 0.00 0.00 57 1010.9
20260510053025 7 19 8.0 14.5 0.00 0.00 0.00 58 1010.7
20260510051522 7 5 4.8 8.0 0.00 0.00 0.00 58 1010.4
20260510050018 8 5 4.8 12.9 0.00 0.00 0.00 55 1010.1
20260510044516 8 11 11.3 19.3 0.00 0.00 0.00 54 1009.8
20260510043012 8 360 11.3 16.1 0.00 0.00 0.00 60 1009.5
20260510041508 8 355 9.7 14.5 0.00 0.00 0.00 59 1009.2
20260510040005 9 355 12.9 20.9 0.00 0.00 0.00 58 1008.9
20260510034602 6 360 6.4 14.5 0.00 0.00 0.00 67 1008.6
20260510033056 7 335 0.0 0.0 0.00 0.00 0.00 68 1008.1
20260510031601 8 335 0.0 0.0 0.00 0.00 0.00 65 1007.9
20260510030048 8 335 0.0 0.0 0.00 0.00 0.00 60 1007.7
20260510024543 9 335 0.0 0.0 0.00 0.00 0.00 61 1007.6
20260510023043 10 335 0.0 4.8 0.00 0.00 0.00 57 1007.2
20260510021536 11 335 3.2 8.0 0.00 0.00 0.00 54 1007.1
20260510020030 12 322 8.0 12.9 0.00 0.00 0.00 52 1006.8
20260510014524 12 317 11.3 19.3 0.00 0.00 0.00 51 1006.4
20260510013020 13 309 11.3 19.3 0.00 0.00 0.00 50 1006.0
20260510011516 13 336 12.9 25.7 0.00 0.00 0.00 49 1005.6
20260510010011 14 298 17.7 25.7 0.00 0.00 0.00 45 1005.1
20260510004508 15 317 19.3 33.8 0.00 0.00 0.00 43 1004.6
20260510003003 15 328 17.7 30.6 0.00 0.00 0.00 43 1004.3
20260510001559 15 313 17.7 22.5 0.00 0.00 0.00 43 1004.0
20260510000054 16 335 19.3 32.2 0.00 0.00 0.00 40 1003.6
20260509234549 17 300 20.9 30.6 0.00 0.00 0.00 38 1003.3
20260509233045 17 306 20.9 35.4 0.00 0.00 0.00 38 1002.9
20260509231546 17 315 20.9 29.0 0.00 0.00 0.00 39 1002.6
20260509230040 18 305 17.7 27.4 0.00 0.00 0.00 37 1002.4